Weather History for Windom, MN

Change the Weather History Date:

Sunday, May 26, 2013

  Actual Average Record
Temperature  
Mean Temperature 52 °F -  
Max Temperature 55 °F 71 °F 97 °F (1967)
Min Temperature 48 °F 50 °F 35 °F (1992)
Degree Days  
Heating Degree Days 14    
Growing Degree Days 2 (Base 50)    
Moisture  
Dew Point 50 °F    
Average Humidity 94    
Maximum Humidity 100    
Minimum Humidity 87    
Precipitation  
Precipitation 0.41 in - - ()
Sea Level Pressure  
Sea Level Pressure 30.06 in    
Wind  
Wind Speed 15 mph (ESE)    
Max Wind Speed 25 mph    
Max Gust Speed 32 mph    
Visibility 5 miles    
Events Rain , Thunderstorm    
Averages and records for this station are not official NWS values.
T = Trace of Precipitation, MM = Missing Value Source: NWS Daily Summary

Daily Weather History Graph

Daily Weather History Graph

Search for Another Location

Airport:

Trip Planner

Search our weather history database for the weather conditions in past years. The results will help you decide how hot, cold, wet, or windy it might be!

Date:

Astronomy

May. 26, 2013 Rise Set
Actual Time 5:44 AM CDT 8:51 PM CDT
Civil Twilight 5:09 AM CDT 9:25 PM CDT
Nautical Twilight 4:25 AM CDT 10:10 PM CDT
Astronomical Twilight 3:31 AM CDT 11:04 PM CDT
Moon 10:38 PM CDT (5/26) 7:15 AM CDT (5/26)
Length of Visible Light 16h 16m
Length of Day
15h 06m
Waning Gibbous, 96% of the Moon is Illuminated
May 26
Waning Gibbous
May 31
Last Quarter
Jun 8
New
Jun 16
First Quarter
Jun 23
Full

Hourly Weather History & Observations

Time (CDT) Temp. Dew Point Humidity Pressure Visibility Wind Dir Wind Speed Gust Speed Precip Events Conditions
12:12 AM 50.0 °F 48.2 °F 94% 30.12 in 4.0 mi ESE 18.4 mph 24.2 mph N/A   Overcast
12:33 AM 50.0 °F 48.2 °F 94% 30.13 in 5.0 mi ESE 19.6 mph 25.3 mph N/A   Overcast
12:52 AM 50.0 °F 48.2 °F 94% 30.12 in 7.0 mi ESE 18.4 mph - N/A   Overcast
1:12 AM 50.0 °F 48.2 °F 94% 30.10 in 10.0 mi ESE 16.1 mph 24.2 mph N/A   Overcast
1:33 AM 50.0 °F 48.2 °F 94% 30.13 in 10.0 mi SE 12.7 mph 24.2 mph N/A   Overcast
1:52 AM 50.0 °F 48.2 °F 94% 30.12 in 7.0 mi SE 18.4 mph 25.3 mph N/A   Overcast
2:12 AM 50.0 °F 46.4 °F 87% 30.12 in 10.0 mi SE 16.1 mph 24.2 mph N/A Thunderstorm Overcast
2:33 AM 50.0 °F 46.4 °F 87% 30.09 in 10.0 mi ESE 20.7 mph 25.3 mph N/A   Overcast
2:52 AM 50.0 °F 46.4 °F 87% 30.07 in 7.0 mi East 15.0 mph 27.6 mph N/A Rain , Thunderstorm Light Thunderstorms and Rain
3:12 AM 50.0 °F 48.2 °F 94% 30.08 in 7.0 mi East 13.8 mph - 0.01 in Rain , Thunderstorm Light Thunderstorms and Rain
3:33 AM 50.0 °F 48.2 °F 94% 30.05 in 7.0 mi ESE 18.4 mph 23.0 mph 0.01 in Rain , Thunderstorm Heavy Thunderstorms and Rain
3:52 AM 50.0 °F 46.4 °F 87% 30.06 in 7.0 mi ESE 17.3 mph 25.3 mph 0.01 in Rain Light Rain
4:12 AM 50.0 °F 48.2 °F 94% 30.09 in 7.0 mi ESE 10.4 mph 20.7 mph 0.05 in Rain Heavy Rain
4:33 AM 50.0 °F 48.2 °F 94% 30.05 in 7.0 mi SSE 24.2 mph 29.9 mph 0.14 in Rain Heavy Rain
4:52 AM 50.0 °F 48.2 °F 94% 30.07 in 7.0 mi East 10.4 mph 26.5 mph 0.20 in Rain Rain
5:12 AM 50.0 °F 48.2 °F 94% 30.08 in 7.0 mi SE 19.6 mph 26.5 mph 0.03 in Rain , Thunderstorm Thunderstorms and Rain
5:33 AM 50.0 °F 48.2 °F 94% 30.11 in 7.0 mi SE 16.1 mph 23.0 mph 0.07 in Rain , Thunderstorm Thunderstorms and Rain
5:52 AM 50.0 °F 48.2 °F 94% 30.09 in 7.0 mi ESE 16.1 mph - 0.13 in Rain , Thunderstorm Rain
6:12 AM 48.2 °F 48.2 °F 100% 30.08 in 7.0 mi ESE 18.4 mph 26.5 mph 0.03 in Rain , Thunderstorm Rain
6:33 AM 50.0 °F 48.2 °F 94% 30.08 in 7.0 mi SE 16.1 mph 24.2 mph 0.05 in Rain Rain
6:52 AM 50.0 °F 48.2 °F 94% 30.07 in 7.0 mi SE 15.0 mph 21.9 mph 0.06 in Rain Light Rain
7:12 AM 50.0 °F 48.2 °F 94% 30.05 in 7.0 mi SE 20.7 mph 28.8 mph 0.01 in Rain Light Rain
7:33 AM 50.0 °F 48.2 °F 94% 30.05 in 7.0 mi SE 20.7 mph 31.1 mph 0.01 in Rain Light Rain
7:52 AM 50.0 °F 48.2 °F 94% 30.05 in 7.0 mi ESE 18.4 mph 24.2 mph 0.01 in   Overcast
8:12 AM 50.0 °F 48.2 °F 94% 30.09 in 7.0 mi ENE 8.1 mph - N/A   Overcast
8:33 AM 50.0 °F 48.2 °F 94% 30.10 in 5.0 mi East 10.4 mph - N/A   Overcast
8:52 AM 50.0 °F 48.2 °F 94% 30.06 in 4.0 mi East 13.8 mph 19.6 mph N/A   Overcast
9:12 AM 50.0 °F 48.2 °F 94% 30.09 in 4.0 mi East 9.2 mph - N/A   Overcast
9:33 AM 48.2 °F 48.2 °F 100% 30.08 in 2.5 mi East 13.8 mph 18.4 mph N/A   Overcast
9:52 AM 48.2 °F 48.2 °F 100% 30.09 in 2.5 mi East 12.7 mph 17.3 mph N/A   Overcast
10:12 AM 48.2 °F 48.2 °F 100% 30.12 in 2.5 mi East 9.2 mph - N/A   Overcast
10:33 AM 48.2 °F 48.2 °F 100% 30.13 in 3.0 mi ENE 6.9 mph - N/A   Overcast
10:52 AM 48.2 °F 48.2 °F 100% 30.13 in 3.0 mi East 5.8 mph - N/A   Overcast
11:12 AM 50.0 °F 48.2 °F 94% 30.12 in 3.0 mi East 8.1 mph - N/A   Overcast
11:33 AM 50.0 °F 48.2 °F 94% 30.08 in 2.5 mi East 16.1 mph 21.9 mph N/A   Overcast
11:52 AM 50.0 °F 48.2 °F 94% 30.07 in 2.5 mi East 18.4 mph 24.2 mph N/A   Overcast
12:12 PM 48.2 °F 48.2 °F 100% 30.11 in 2.5 mi ESE 10.4 mph 20.7 mph N/A   Overcast
12:33 PM 50.0 °F 48.2 °F 94% 30.09 in 2.5 mi ESE 11.5 mph - N/A   Overcast
12:52 PM 51.8 °F 48.2 °F 88% 30.10 in 3.0 mi East 9.2 mph 17.3 mph N/A   Light Drizzle
1:12 PM 51.8 °F 48.2 °F 88% 30.10 in 5.0 mi East 11.5 mph - N/A   Light Drizzle
1:33 PM 51.8 °F 50.0 °F 94% 30.09 in 7.0 mi East 13.8 mph - N/A   Overcast
1:52 PM 53.6 °F 50.0 °F 88% 30.08 in 7.0 mi East 12.7 mph 20.7 mph N/A   Overcast
2:12 PM 53.6 °F 50.0 °F 88% 30.06 in 5.0 mi East 16.1 mph - N/A   Overcast
2:33 PM 53.6 °F 51.8 °F 94% 30.03 in 5.0 mi East 16.1 mph - N/A   Overcast
2:52 PM 53.6 °F 51.8 °F 94% 29.99 in 5.0 mi ESE 15.0 mph 21.9 mph N/A   Overcast
3:12 PM 53.6 °F 51.8 °F 94% 29.97 in 4.0 mi ESE 19.6 mph 26.5 mph N/A   Overcast
3:33 PM 53.6 °F 51.8 °F 94% 29.99 in 3.0 mi ESE 16.1 mph 20.7 mph N/A   Overcast
3:52 PM 53.6 °F 51.8 °F 94% 30.02 in 3.0 mi East 12.7 mph 18.4 mph N/A   Overcast
4:12 PM 53.6 °F 51.8 °F 94% 30.03 in 3.0 mi East 10.4 mph - N/A   Overcast
4:32 PM 53.6 °F 51.8 °F 94% 30.04 in 4.0 mi ESE 10.4 mph - N/A   Overcast
4:52 PM 55.4 °F 51.8 °F 88% 30.03 in 3.0 mi East 10.4 mph - N/A   Overcast
5:12 PM 55.4 °F 51.8 °F 88% 30.02 in 4.0 mi East 11.5 mph 16.1 mph N/A   Overcast
5:32 PM 55.4 °F 51.8 °F 88% 30.04 in 4.0 mi East 10.4 mph 19.6 mph N/A   Overcast
5:53 PM 55.4 °F 53.6 °F 94% 30.05 in 4.0 mi East 12.7 mph 17.3 mph N/A   Overcast
6:12 PM 55.4 °F 53.6 °F 94% 30.04 in 1.0 mi East 10.4 mph - N/A   Overcast
6:32 PM 55.4 °F 53.6 °F 94% 30.04 in 1.5 mi East 15.0 mph 20.7 mph N/A   Overcast
6:53 PM 55.4 °F 53.6 °F 94% 30.05 in 2.0 mi East 13.8 mph 19.6 mph N/A   Overcast
7:13 PM 55.4 °F 53.6 °F 94% 30.05 in 1.8 mi East 12.7 mph 18.4 mph N/A   Overcast
7:32 PM 53.6 °F 51.8 °F 94% 30.02 in 2.0 mi East 16.1 mph 20.7 mph N/A   Overcast
7:53 PM 53.6 °F 51.8 °F 94% 30.04 in 2.5 mi East 12.7 mph 20.7 mph N/A   Overcast
8:13 PM 53.6 °F 51.8 °F 94% 30.03 in 2.5 mi East 12.7 mph - N/A   Overcast
8:32 PM 53.6 °F 51.8 °F 94% 30.03 in 4.0 mi East 11.5 mph - N/A Thunderstorm Overcast
8:53 PM 53.6 °F 51.8 °F 94% 30.06 in 4.0 mi ESE 12.7 mph 19.6 mph N/A   Overcast
9:13 PM 53.6 °F 51.8 °F 94% 30.04 in 4.0 mi East 11.5 mph - N/A   Overcast
9:32 PM 53.6 °F 51.8 °F 94% 30.01 in 4.0 mi ESE 18.4 mph 24.2 mph N/A Thunderstorm Overcast
9:53 PM 53.6 °F 51.8 °F 94% 30.04 in 5.0 mi East 16.1 mph 20.7 mph N/A Thunderstorm Unknown
10:13 PM 53.6 °F 51.8 °F 94% 30.01 in 5.0 mi East 18.4 mph 26.5 mph N/A   Overcast
10:32 PM 53.6 °F 51.8 °F 94% 29.95 in 4.0 mi East 23.0 mph 27.6 mph N/A   Overcast
10:53 PM 53.6 °F 51.8 °F 94% 29.93 in 5.0 mi East 25.3 mph 32.2 mph N/A   Overcast
11:13 PM 53.6 °F 51.8 °F 94% 29.90 in 5.0 mi East 23.0 mph 29.9 mph N/A   Overcast
11:32 PM 53.6 °F 51.8 °F 94% 30.00 in 5.0 mi ESE 9.2 mph - N/A   Overcast
11:53 PM 53.6 °F 51.8 °F 94% 30.00 in 5.0 mi ESE 8.1 mph - N/A   Overcast